SCP
2 2 2 2 2 1 1 0 0 0 0 0 0 0 1 1 1 2 1 1 2 3 3 4 4 4 4 3 3 3 2 2 2 1 1 1 1 1 0 0 0 0 0 0 0 0 0 0 0
2 2 2 2 2 1 0 0 0 0 0 0 0 0 1 1 2 2 2 1 2 3 3 4 4 5 4 4 3 3 2 2 2 1 1 1 1 1 0 0 0 0 0 0 0 0 0 0 0
2 2 2 2 1 1 0 0 0 0 1 1 1 1 2 2 3 3 2 2 2 3 3 4 5 5 5 4 3 3 2 2 2 2 2 1 1 1 0 0 0 0 0 0 0 0 0 0 0
2 2 2 2 1 1 0 0 0 1 1 1 1 2 2 3 3 2 2 2 3 3 4 5 6 6 5 4 4 3 3 2 2 2 2 1 1 1 1 1 1 0 0 0 0 0 0 0 0
2 2 2 1 1 0 0 0 1 1 1 2 2 2 3 3 3 2 2 2 3 3 4 5 6 6 5 5 4 3 3 2 2 2 2 1 1 1 1 1 1 0 0 0 0 0 0 0 0
2 2 1 1 1 0 0 0 1 1 2 2 2 2 3 3 3 3 2 3 3 3 4 5 6 5 5 5 4 3 3 2 2 2 1 1 1 1 1 1 1 0 0 0 0 0 0 0 0
1 1 1 1 0 0 0 0 1 1 2 2 2 3 4 4 3 3 3 3 3 4 4 5 5 5 4 4 4 3 3 2 2 1 1 1 1 1 1 1 0 0 0 0 0 0 0 0 0
1 1 1 0 0 0 0 1 1 2 2 2 2 3 4 5 4 3 3 4 3 4 4 5 5 4 4 3 3 3 3 2 1 1 1 1 1 1 1 0 0 0 0 0 0 0 0 0 0
1 1 1 0 0 0 0 1 2 2 3 3 3 3 3 4 5 4 3 3 3 3 4 4 5 4 3 3 3 3 2 2 1 1 1 1 1 1 0 0 0 0 0 0 0 0 0 0 0
1 1 0 0 0 0 0 1 2 2 3 3 3 3 3 4 5 4 3 3 3 3 4 4 5 4 4 3 3 3 2 2 1 1 1 1 1 1 0 0 0 0 0 0 0 0 0 0 0
1 0 0 0 0 0 1 1 1 2 2 2 2 2 2 3 4 3 2 2 2 3 4 4 5 4 4 4 3 3 2 2 1 1 1 1 1 1 0 0 0 0 0 0 0 0 0 0 0
0 0 0 0 0 0 1 1 1 2 2 2 2 2 2 2 3 3 2 2 2 3 3 4 4 4 4 4 4 3 2 2 1 1 1 1 1 0 0 0 0 0 0 0 0 0 0 0 0
0 0 0 0 1 1 1 2 2 2 2 2 2 2 2 2 2 2 2 2 2 2 3 4 4 4 3 3 3 3 2 2 1 1 1 1 1 0 0 0 0 0 0 0 0 0 0 0 0
0 0 0 1 1 1 2 3 3 2 2 2 2 2 2 2 2 2 2 2 2 2 2 3 4 3 3 3 3 3 2 2 1 1 1 1 0 0 0 0 0 0 0 0 0 0 0 0 0
0 0 0 1 1 2 2 3 3 2 2 2 2 2 2 2 2 2 2 2 2 2 2 3 3 3 3 2 2 2 2 2 1 1 1 1 0 0 0 0 0 0 0 0 0 0 0 0 0
0 0 0 0 1 1 2 2 3 2 2 1 2 2 2 2 2 2 2 2 2 2 2 3 3 3 3 2 2 2 2 2 1 1 1 1 1 0 0 0 0 0 0 0 0 0 1 1 1
0 0 0 0 0 1 1 2 2 2 2 2 1 2 2 2 2 1 1 2 2 2 2 2 3 3 3 2 2 2 2 2 2 1 1 1 1 1 1 1 1 1 1 0 0 0 1 1 1
0 0 0 0 1 1 1 1 2 2 2 2 2 2 2 2 1 1 1 1 2 2 2 3 3 3 3 2 2 2 2 2 2 2 2 1 1 1 1 1 1 1 1 1 1 1 1 1 1
0 0 0 0 1 1 1 1 1 1 1 2 2 2 2 2 1 1 1 2 2 2 2 2 3 3 3 2 2 2 2 2 2 2 2 2 2 2 2 1 1 1 1 1 1 1 1 1 1
0 0 0 0 0 0 0 0 0 0 1 1 2 2 2 2 2 1 2 2 2 1 1 2 2 2 2 2 2 2 3 2 2 2 3 3 3 2 2 2 2 2 1 1 1 1 1 1 1
0 0 0 0 0 0 0 0 0 0 0 1 1 1 2 2 2 2 2 2 2 2 1 1 2 2 2 2 2 3 3 3 2 2 3 3 3 3 3 2 2 2 2 2 1 1 1 1 1
0 0 0 0 0 0 0 0 0 0 0 0 1 1 1 1 1 1 2 2 2 2 2 2 2 2 2 2 2 2 2 2 2 2 3 3 3 3 2 2 2 2 2 2 2 1 1 1 1
0 0 0 0 0 0 0 0 0 0 0 0 0 0 1 1 1 1 2 2 3 3 2 2 2 2 2 2 2 2 2 2 2 2 2 3 3 3 3 2 2 2 2 2 2 1 1 1 1
0 0 0 0 0 0 0 0 0 0 0 0 0 0 0 0 0 1 1 2 3 3 2 2 1 1 2 2 2 2 2 2 2 2 2 3 3 4 3 3 2 2 2 2 2 1 1 1 1
0 0 0 0 0 0 0 0 0 0 0 0 0 0 0 0 0 0 1 2 3 3 2 2 2 2 2 3 3 2 3 3 3 2 3 3 4 4 4 4 3 3 2 2 2 1 1 1 1
0 0 0 0 0 0 0 0 0 0 0 0 0 0 0 0 0 1 1 2 3 3 3 3 3 3 3 3 3 2 3 3 3 3 3 3 4 4 4 4 4 4 3 2 2 2 1 1 1
0 0 0 0 0 0 0 0 0 0 0 0 0 0 0 0 0 0 1 2 2 2 2 2 3 3 2 2 2 2 2 3 4 4 3 3 4 4 4 4 4 4 3 3 2 2 1 1 1
0 0 0 0 0 0 0 0 0 0 0 0 0 0 0 0 0 0 1 1 1 1 1 2 2 2 2 1 1 1 2 3 4 4 4 4 4 3 4 4 4 4 4 3 2 2 2 1 1
0 0 0 0 0 0 0 0 0 0 0 0 0 0 0 0 0 0 0 0 1 1 1 1 1 1 1 1 1 1 1 2 4 4 4 4 4 3 3 4 4 4 3 3 2 2 2 1 1
0 0 0 0 0 0 0 0 0 0 0 0 0 0 0 0 0 0 0 1 1 1 1 2 1 1 1 1 1 1 1 2 3 4 4 4 4 3 3 3 3 3 3 3 2 2 1 1 1
Wind_Speed
5 4 3 4 7 10 21 20 17 16 16 12 8 9 10 11 7 1 5 13 18 20 21 22 19 19 18 18 17 17 17 17 17 19 19 19 18 18 18 18 18 17 17 17 17 16 16 15 15
4 3 4 5 11 16 20 20 18 16 12 9 9 9 9 8 2 3 5 13 18 20 20 20 20 19 19 18 18 17 17 17 17 18 18 18 18 18 18 18 17 17 17 16 16 15 15 14 14
4 4 5 7 14 20 21 17 15 12 10 9 9 9 9 5 3 4 7 16 18 18 18 19 20 20 19 18 18 17 17 17 17 17 17 18 18 18 18 18 17 16 16 15 15 15 14 14 13
3 4 5 11 20 22 19 15 13 13 11 10 9 7 5 1 1 4 11 16 18 18 18 19 18 19 19 18 18 17 17 17 17 17 17 17 18 18 18 17 16 16 15 15 15 14 14 13 13
3 5 9 14 22 20 16 12 11 13 13 11 10 9 7 2 2 7 12 16 17 17 17 20 18 19 19 18 17 17 17 17 17 17 17 17 18 18 17 17 16 15 15 15 14 14 13 13 12
5 5 10 16 20 19 17 13 12 13 11 11 10 10 7 5 6 9 12 14 16 16 16 18 18 17 17 17 17 16 16 17 17 17 17 17 17 17 17 16 16 15 14 14 14 13 13 12 12
6 7 12 16 16 16 15 12 13 13 12 10 9 9 7 7 7 9 12 13 15 16 16 16 17 17 15 15 15 15 15 15 16 16 16 15 15 16 16 15 15 14 14 13 13 13 12 12 11
4 5 12 15 16 15 10 10 10 11 11 8 9 10 8 6 6 8 10 12 14 15 15 16 16 17 16 15 14 13 13 13 13 14 13 13 13 13 13 13 13 13 13 12 12 12 11 11 10
4 7 11 13 12 10 7 9 7 7 7 8 8 8 6 7 8 9 10 11 13 14 14 15 16 16 15 15 15 14 13 12 13 13 13 12 12 13 12 13 11 11 12 11 11 11 10 9 8
6 8 12 8 7 8 7 9 7 7 9 9 8 7 5 8 11 11 12 14 16 16 15 13 14 15 15 12 13 12 11 12 12 12 14 10 10 9 10 12 10 10 10 10 10 9 9 6 6
6 9 8 7 6 7 8 8 6 8 10 10 9 8 8 10 12 13 12 13 14 15 15 14 13 14 14 11 10 8 7 9 10 12 12 9 9 8 8 7 8 9 9 8 9 8 5 4 3
6 8 8 7 6 6 8 6 6 9 10 9 9 9 10 11 11 13 13 12 11 13 15 14 14 13 13 12 10 9 8 7 7 10 12 9 6 7 8 6 7 7 6 6 6 4 6 5 5
8 7 7 8 7 7 8 8 7 10 8 9 8 9 12 11 11 10 11 11 11 12 14 15 14 14 12 12 9 9 9 8 9 8 10 10 7 8 8 6 6 6 5 6 6 5 6 5 5
4 5 6 8 7 6 8 8 7 8 5 5 8 10 10 10 10 8 10 11 11 11 11 14 15 13 13 11 10 9 9 8 9 8 10 11 8 7 7 7 6 6 6 5 5 6 5 4 3
3 5 5 5 5 4 5 7 8 7 4 5 7 9 9 9 9 9 9 9 10 11 11 13 15 14 13 12 12 9 9 9 8 8 10 10 9 9 7 7 6 6 6 6 5 6 5 4 3
4 5 4 2 3 3 5 8 5 3 4 6 6 7 7 7 8 7 7 7 9 10 11 11 11 14 13 11 11 9 9 10 8 8 9 11 11 10 8 7 6 7 6 6 5 5 5 4 4
4 4 4 2 1 2 4 7 4 4 5 7 6 6 7 6 7 6 6 6 7 10 11 11 11 13 12 10 9 9 9 9 8 8 8 10 11 11 8 7 6 7 6 5 5 5 5 4 4
3 3 3 2 1 3 5 7 6 5 6 7 7 6 7 7 8 6 5 6 7 9 10 10 10 11 11 9 7 7 9 8 8 8 9 11 10 11 9 7 8 7 6 6 6 6 5 4 3
4 4 4 4 3 4 5 7 7 6 5 6 6 6 6 7 6 4 4 5 6 8 9 9 9 9 8 7 7 7 8 8 7 8 10 11 11 11 9 7 8 7 7 7 7 6 6 5 4
2 3 4 3 2 3 5 8 7 5 5 5 5 5 6 6 4 4 4 4 6 7 9 10 10 9 9 7 7 6 7 7 7 7 9 11 11 11 9 9 7 7 6 8 8 7 5 4 4
1 2 3 3 4 3 4 5 4 3 3 3 4 4 4 5 4 3 3 5 5 6 8 9 10 11 11 10 7 5 5 5 6 8 8 10 11 11 10 10 9 8 8 7 8 8 8 6 5
2 2 3 3 3 1 3 3 3 2 2 2 3 3 3 3 3 3 4 4 5 6 6 7 8 10 10 10 9 10 8 8 9 7 7 9 10 11 11 10 10 9 7 8 8 8 7 7 6
2 3 3 3 2 2 2 3 2 1 2 4 4 4 3 3 2 2 3 4 5 5 5 6 7 8 9 9 10 10 9 7 6 7 9 9 9 10 10 10 9 9 8 8 8 8 8 7 6
3 2 1 1 2 2 1 2 1 1 3 5 5 4 3 2 1 1 2 2 3 4 5 5 7 7 8 10 10 11 11 9 9 9 9 8 7 8 10 9 9 9 8 8 8 8 8 7 6
2 2 1 1 1 0 1 2 1 4 6 7 7 6 4 3 1 1 1 2 2 4 5 5 7 7 7 9 11 12 12 11 12 12 11 10 8 7 10 9 9 8 7 7 7 7 7 6 7
1 2 2 2 1 1 0 1 2 6 7 7 6 6 5 4 3 2 1 2 2 3 4 5 6 6 6 7 9 10 10 8 8 10 9 9 8 8 10 10 9 8 8 7 7 6 6 5 6
1 0 2 2 1 1 1 1 1 6 9 9 9 8 8 6 5 3 2 2 1 2 2 3 4 4 5 6 7 8 9 9 9 9 8 7 6 6 8 9 9 9 8 8 7 6 6 6 6
2 1 1 1 2 1 1 1 3 8 11 11 10 9 9 8 7 5 4 3 2 2 1 1 2 3 4 5 5 5 7 8 8 7 8 7 7 7 8 9 9 9 9 8 7 6 6 6 5
1 0 1 1 3 2 1 2 4 6 7 9 10 9 9 9 7 6 5 4 4 3 2 1 0 1 2 3 4 5 6 6 7 6 7 7 7 8 9 9 9 9 8 8 7 7 7 7 6
2 1 1 2 1 1 1 1 5 5 6 7 9 9 10 9 8 7 6 5 5 5 4 3 2 1 1 2 2 3 4 5 6 6 6 7 8 8 9 10 9 8 8 7 8 7 7 7 7
Wind_Direction
295 281 245 211 210 222 231 228 226 222 220 217 217 221 222 213 213 191 76 159 153 154 153 154 154 153 151 149 147 146 146 147 147 146 145 144 141 138 136 134 131 127 122 118 115 111 108 106 103
286 242 216 214 220 220 224 223 223 224 219 213 218 225 227 223 243 77 135 155 154 154 155 157 152 153 152 150 149 149 150 149 148 147 146 145 142 140 138 135 131 126 121 118 114 112 110 108 106
257 228 218 214 225 225 222 212 220 221 225 222 217 228 235 230 180 151 149 155 155 156 157 151 152 153 153 152 152 152 152 151 148 147 147 145 143 141 139 134 129 123 120 119 116 114 113 111 108
224 204 222 228 227 230 234 226 220 220 220 225 220 215 219 263 186 153 151 159 158 157 156 150 154 153 153 154 154 153 153 151 148 147 147 145 144 141 137 131 126 123 122 121 118 116 114 112 111
217 220 221 228 230 230 235 241 230 229 222 219 222 223 216 185 151 153 161 163 160 158 155 153 155 154 155 155 155 156 155 152 149 149 148 147 145 140 135 131 129 128 127 125 120 117 116 113 112
199 215 225 229 227 229 232 233 234 233 232 231 231 231 223 194 166 162 167 169 164 159 155 155 154 155 156 156 156 156 156 154 152 151 149 147 145 140 137 135 133 132 131 127 123 120 118 117 114
219 210 230 236 232 228 229 229 235 235 233 233 239 239 217 189 168 166 170 172 168 162 157 158 159 159 156 153 153 155 155 154 153 151 146 141 140 139 139 138 137 135 132 128 125 123 121 118 117
232 222 230 234 233 230 229 231 237 239 235 241 242 236 218 188 161 161 170 173 170 166 161 161 163 163 162 158 152 151 150 149 146 140 134 132 135 139 139 142 137 135 132 129 127 125 123 121 119
212 225 228 228 233 233 229 231 235 254 238 243 249 257 244 187 170 167 172 176 174 170 165 164 166 165 165 162 154 153 147 143 141 136 131 142 151 150 152 141 134 134 133 131 130 127 124 123 122
208 227 232 237 244 252 250 245 239 242 231 236 239 242 210 185 182 181 183 186 180 174 167 167 168 166 165 160 161 164 160 158 162 155 156 161 157 154 150 131 132 132 130 131 128 127 140 166 145
217 234 247 250 256 261 262 256 247 239 239 237 231 220 201 198 192 190 192 194 186 178 172 173 168 169 167 164 165 164 163 164 165 162 163 160 154 151 154 152 147 148 153 150 143 161 167 168 149
231 244 258 263 261 254 252 252 247 233 248 268 259 232 212 206 199 195 195 196 188 183 177 174 171 170 173 168 166 166 164 166 164 167 166 164 162 165 165 167 165 166 170 163 172 174 166 169 167
236 248 262 276 272 261 255 246 255 258 260 269 261 234 216 209 205 197 197 195 193 188 180 173 175 174 173 171 167 170 169 170 168 169 173 172 170 172 168 169 171 175 172 173 177 179 171 178 178
248 256 271 277 267 258 253 256 249 264 270 259 244 233 219 212 204 196 198 197 196 189 181 178 178 178 175 175 173 172 172 172 171 173 178 179 176 175 173 173 176 178 180 179 183 182 181 187 193
250 255 264 265 259 248 243 249 240 265 261 247 244 237 226 219 211 204 201 202 197 194 181 186 181 179 180 179 177 173 173 175 176 175 180 183 181 179 178 179 180 180 181 181 185 182 194 193 200
229 232 235 230 252 258 228 244 246 262 243 245 247 245 234 223 215 212 199 206 205 202 186 189 182 179 181 181 179 178 178 179 180 178 181 187 186 185 183 185 186 181 180 186 187 191 195 198 210
215 229 249 251 214 260 232 250 263 270 249 247 242 243 239 235 220 218 203 204 212 207 196 188 187 181 182 183 184 183 180 183 183 182 184 189 190 189 190 192 189 184 186 192 191 201 206 206 213
233 254 262 272 282 259 249 261 272 279 261 250 242 240 239 239 229 218 210 208 207 206 198 189 192 183 182 183 183 184 183 185 186 187 189 189 191 192 192 191 192 187 190 194 197 200 207 216 214
260 257 269 286 291 269 261 272 281 286 264 252 243 238 239 243 235 214 210 208 202 197 190 189 194 185 178 181 180 187 186 186 189 192 192 193 194 192 192 190 191 191 196 200 201 201 205 209 209
234 252 288 305 299 269 272 278 280 271 263 259 252 245 241 246 233 213 209 206 202 198 190 190 194 192 187 191 185 191 187 185 188 189 192 195 194 193 194 195 192 192 196 201 202 201 206 203 206
286 278 297 312 316 243 264 267 259 266 257 255 250 251 256 253 246 222 206 207 193 199 198 196 194 198 195 192 184 175 184 177 184 191 192 195 195 193 192 195 196 195 197 201 203 204 211 211 204
304 325 281 290 290 276 270 268 268 273 264 267 271 272 277 275 256 229 210 209 202 208 208 200 199 204 201 192 190 186 198 198 198 193 192 192 196 197 195 196 198 198 200 203 204 206 211 216 211
304 319 287 287 282 274 262 246 285 313 286 311 307 293 288 283 274 245 223 214 210 208 206 201 196 201 200 196 195 197 208 208 198 192 193 193 194 198 198 198 198 199 201 202 203 205 209 214 217
292 286 253 217 224 231 280 257 323 14 315 316 317 315 316 300 292 282 257 228 217 212 203 199 196 205 203 203 198 199 205 206 201 197 196 196 195 196 197 198 199 201 201 199 199 205 208 211 214
322 298 249 186 193 65 33 262 346 6 345 327 323 330 342 343 344 352 267 245 224 219 203 205 201 207 211 210 208 205 206 208 210 204 203 200 196 196 195 194 195 194 195 193 191 195 197 200 203
340 319 330 326 345 42 171 263 25 6 355 345 341 347 356 360 359 356 316 257 233 224 207 203 208 213 210 212 213 213 212 213 214 210 202 201 201 198 191 191 187 186 187 185 183 183 185 190 199
299 336 329 305 303 273 220 264 49 12 13 11 10 11 8 2 356 350 343 297 269 238 220 204 214 217 209 213 211 210 208 210 212 209 203 200 199 191 186 184 181 180 181 181 175 180 182 182 189
329 327 254 267 285 244 252 305 354 0 0 3 9 9 4 2 3 360 356 352 3 350 321 169 206 218 214 215 213 214 209 208 209 203 199 192 188 180 180 181 179 177 175 172 171 174 176 179 179
18 15 305 297 313 297 276 56 27 355 354 358 4 4 360 359 1 2 2 3 14 18 19 38 152 216 216 220 216 210 201 198 199 195 194 185 177 175 175 173 173 172 170 169 171 172 171 174 173
311 332 304 293 305 300 300 34 44 17 7 7 5 4 2 3 3 6 9 12 20 22 22 21 18 8 317 246 218 197 185 184 187 187 188 179 175 174 171 167 165 163 164 165 170 172 175 174 174